Location: Andershausen
(51.8462°N, 9.8595°E)
Time: 22:44:03
(UTC+00:00)

SKYMED 2 - Pass Details

Date: 18 November 2025
Orbit: 621 x 623 km, 97.9° (Epoch: 04 December)

Event Time Altitude Azimuth Distance (km) Brightness Sun altitude
Exits shadow 18:03:25 22° 2° (N) 1,380 5.3 -24.0°
Maximum altitude 18:06:07 60° 289° (WNW) 717 4.0 -24.4°
Drops below altitude 10° 18:10:23 10° 210° (SSW) 1,989 6.5 -25.0°
Sets 18:12:35 0° 207° (SSW) 2,891 7.3 -25.4°
